Home   Weather   Mo i Rana   Past weeks

Flag for Norway Past Weather in Mo i Rana, Norway — Yesterday and Last 2 Weeks

Now
36 °F

Scattered showers. Broken clouds.


Feels Like: 36 °F
Forecast: 25 / 36 °F
Wind: 2 mph from West

Location: Mo I Rana / Rossvoll

Current Time: Dec 7, 2016 at 11:59:50 am

Latest Report: Dec 7, 2016 at 10:50 am


Visibility: N/A

Pressure: 29.68 "Hg

Humidity: 93%

Dew Point: 34 °F

Location of Mo i RanaLocation

Past Weather in Mo i Rana — Graph

°F

Mo i Rana Temperature Yesterday

Maximum temperature yesterday: 41 °F (at 8:20 pm)
Minimum temperature yesterday: 21 °F (at 6:50 am)
Average temperature yesterday: 31 °F

High & Low Weather Summary for the Past Weeks

 TemperatureHumidityPressure
High43 °F (Dec 4, 7:50 pm)100% (Nov 22, 10:50 am)30.24 "Hg (Nov 22, 10:50 am)
Low14 °F (Nov 27, 3:50 pm)65% (Nov 30, 10:20 am)27.01 "Hg (Nov 30, 2:20 pm)
Average30 °F91%29.73 "Hg
* Reported Nov 22 10:50 am — Dec 7 10:20 am, Mo i Rana, Weather by CustomWeather, © 2016

Note: Actual official high and low records may vary slightly from our data, if they occured in-between our weather recording intervals... More about our weather records

Advertising

Mo i Rana Weather History for the Previous 24 Hours

Scroll right to see more
 ConditionsComfort  
Time TempWeatherWind HumidityBarometerVisibility
10:20 am
Wed, Dec 7
37 °FScattered showers. Broken clouds.5 mph93%29.68 "HgN/A
9:50 am37 °FScattered showers. Partly cloudy.5 mph93%29.68 "HgN/A
9:20 am39 °FSprinkles. Partly cloudy.12 mph87%29.71 "HgN/A
8:50 am39 °FSprinkles. Partly cloudy.12 mph87%29.71 "HgN/A
8:20 am39 °FSprinkles. Partly cloudy.9 mph87%29.71 "HgN/A
7:50 am39 °FSprinkles. Partly cloudy.12 mph87%29.74 "HgN/A
7:20 am39 °FScattered showers. Partly cloudy.5 mph81%29.74 "HgN/A
6:50 am37 °FScattered showers. Partly cloudy.6 mph93%29.74 "HgN/A
6:20 am37 °FSprinkles. Partly cloudy.6 mph93%29.74 "HgN/A
5:50 am39 °FSprinkles. Partly cloudy.12 mph87%29.77 "HgN/A
5:29 am41 °FPartly cloudy.14 mph76%29.74 "HgN/A
11:20 pm
Tue, Dec 6
39 °FPartly cloudy.13 mph81%29.86 "HgN/A
10:50 pm41 °FLight rain. Partly cloudy.14 mph76%29.86 "HgN/A
10:20 pm41 °FLight rain. Partly cloudy.18 mph76%29.89 "HgN/A
9:50 pm39 °FLight rain. Partly cloudy.10 mph87%29.89 "HgN/A
8:50 pm39 °FLight rain. Partly cloudy.16 mph87%29.89 "HgN/A
8:20 pm41 °FLight rain. Partly cloudy.17 mph81%29.89 "HgN/A
7:50 pm39 °FLight rain. Partly cloudy.15 mph87%29.89 "HgN/A
6:20 pm37 °FLight rain. Partly cloudy.15 mph93%29.92 "HgN/A
5:50 pm36 °FLight rain. Partly cloudy.8 mph93%29.95 "HgN/A
5:20 pm36 °FLight rain. Partly cloudy.12 mph93%29.95 "HgN/A
4:50 pm34 °FLight rain. Passing clouds.9 mph93%29.98 "Hg4 mi
4:20 pm32 °FLight snow. Fog.1 mph100%29.98 "Hg2 mi
3:50 pm30 °FSnow. Ice fog.1 mph100%30.01 "Hg1 mi
3:20 pm30 °FLight snow. Ice fog.2 mph93%30.01 "Hg1 mi
2:50 pm28 °FLight snow. Ice fog.5 mph100%30.04 "Hg1 mi
1:50 pm28 °FLight snow. Ice fog.2 mph93%30.07 "Hg1 mi
12:20 pm28 °FLight snow. Broken clouds.2 mph93%30.09 "Hg3 mi
11:50 am27 °FLight snow. Partly sunny.1 mph100%30.09 "Hg4 mi
11:20 am27 °FLight snow. Broken clouds.No wind93%30.12 "HgN/A
Weather by CustomWeather, © 2016

See weather overviewHow to use our weather pages